Regional Weather Roundup
Issued by NWS

Home | Current Version | Previous Version | Graphics & Text | Print | Product List | Glossary On
Versions: 1 2 3 4 5 6 7 8 9 10 11 12 13 14 15 16 17 18 19 20 21 22 23 24 25 26 27 28 29 30 31 32 33 34 35 36 37 38 39 40 41 42 43 44 45 46 47 48 49 50
000
ASUS43 KOAX 291502
RWRNE

WEATHER ROUNDUP FOR NEBRASKA
NATIONAL WEATHER SERVICE OMAHA NE
1000 AM CDT FRI JUL 29 2016

NOTES: SATELLITE DATA IS BEING USED TO AUGMENT CLOUD COVER ABOVE
       12000 FEET.
       "FAIR" INDICATES FEW OR NO CLOUDS BELOW 12,000 FEET WITH NO
       SIGNIFICANT WEATHER AND/OR OBSTRUCTIONS TO VISIBILITY.

  * THESE STATIONS DO NOT REPORT WEATHER SUCH AS RAIN...SNOW OR FOG.

NEZ001>004-019>022-054>056-291600-
NEBRASKA PANHANDLE

CITY           SKY/WX    TMP DP  RH WIND       PRES   REMARKS
SCOTTSBLUFF    SUNNY     69  60  73 E3        30.15F
ALLIANCE       SUNNY     67  60  78 CALM      30.15S
CHADRON        SUNNY     67  59  75 NE6       30.12F
SIDNEY         MOSUNNY   71  59  65 CALM      30.19R
$$

NEZ057>060-069>072-079>082-291600-
SOUTHWEST NEBRASKA

CITY           SKY/WX    TMP DP  RH WIND       PRES   REMARKS
NORTH PLATTE   CLOUDY    66  63  90 CALM      30.14S
IMPERIAL       SUNNY     69  63  81 CALM      30.15S
LEXINGTON      MOSUNNY   69  64  84 E3        30.13S
MCCOOK         SUNNY     70  63  78 E7        30.14R
OGALLALA       SUNNY     73  63  71 CALM      30.15R
$$

NEZ005>010-023>029-035>040-094-291600-
NORTH CENTRAL NEBRASKA

CITY           SKY/WX    TMP DP  RH WIND       PRES   REMARKS
VALENTINE      CLOUDY    65  61  87 E3        30.13
AINSWORTH      CLOUDY    65  63  93 E3        30.14R
BROKEN BOW     PTSUNNY   66  63  90 E3        30.13S
O`NEILL        CLOUDY    68  62  81 E6        30.13R
ORD            CLOUDY    67  64  90 NW3       30.11R
THEDFORD       CLOUDY    64  63  97 E5        30.16R
$$

NEZ041-046>049-061>064-073>077-083>087-291600-
SOUTH CENTRAL NEBRASKA

CITY           SKY/WX    TMP DP  RH WIND       PRES   REMARKS
GRAND ISLAND   MOSUNNY   70  64  81 NE6       30.11S
AURORA         CLOUDY    71  67  88 CALM      30.10F
HASTINGS       MOSUNNY   73  63  70 CALM      30.11S
HOLDREGE       MOSUNNY   69  64  84 CALM      30.12F
KEARNEY *      PTSUNNY   73  16  11 CALM      30.12S
YORK           CLOUDY    72  64  78 CALM      30.09F
$$

NEZ011>018-030>034-042>045-291600-
NORTHEAST NEBRASKA

CITY           SKY/WX    TMP DP  RH WIND       PRES   REMARKS
NORFOLK        CLOUDY    69  62  78 E3        30.10R
ALBION         CLOUDY    68  62  80 NE7       30.11R
BLAIR          CLOUDY    71  62  73 CALM      30.08F
FREMONT        CLOUDY    69  63  80 E5        30.09F
TEKAMAH        SUNNY     73  61  65 VRB3      30.08S
WAYNE          MOSUNNY   69  63  81 CALM      30.10S
$$

NEZ050>053-065>068-078-088>093-291600-
SOUTHEAST NEBRASKA

CITY           SKY/WX    TMP DP  RH WIND       PRES   REMARKS
LINCOLN        LGT RAIN  71  66  84 NE8       30.09S
OMAHA EPPLEY   CLOUDY    72  60  66 N5        30.07F
BEATRICE       CLOUDY    74  63  69 E7        30.07S
FALLS CITY     PTSUNNY   73  67  81 N3        30.04S
NEBRASKA CITY  CLOUDY    71  67  89 N6        30.07S
PLATTSMOUTH    LGT RAIN  68  64  87 CALM      30.07S
$$

NEZ044-045-051>053-067-291600-
OMAHA AREA

CITY           SKY/WX    TMP DP  RH WIND       PRES   REMARKS
OMAHA EPPLEY   CLOUDY    72  60  66 N5        30.07F
BLAIR          CLOUDY    71  62  73 CALM      30.08F
FREMONT        CLOUDY    69  63  80 E5        30.09F
MILLARD        CLOUDY    70  62  76 CALM      30.07F
OFFUTT AFB     CLOUDY    69  62  78 NE3       30.06F
PLATTSMOUTH    LGT RAIN  68  64  87 CALM      30.07S
WAHOO          LGT RAIN  70  66  85 CALM      30.09S
$$



USA.gov is the U.S. government's official web portal to all federal, state and local government web resources and services.